SCP
-0 -0 0 -0 -0 -0 0 0 0 0 0 0 0 0 0 0 0 0 0 0 0 0
-0 -0 -0 -0 -0 -0 0 -0 0 0 0 0 0 0 0 0 0 0 0 0 0 0
-0 -0 -0 -0 -0 -0 0 0 -0 0 0 0 0 0 0 0 0 0 0 0 0 0
-0 -0 -0 -0 -0 -0 -0 -0 0 0 0 0 0 0 0 0 0 0 0 0 0 0
-0 -0 -0 -0 -0 0 -0 0 -0 -0 -0 0 0 0 0 0 0 0 0 0 0 0
0 -0 -0 -0 -0 -0 -0 0 0 -0 -0 -0 -0 0 0 0 0 0 0 0 0 0
-0 0 -0 -0 -0 -0 -0 -0 0 -0 -0 -0 -0 -0 -0 -0 0 0 0 0 -0 0
-0 -0 -0 -0 -0 -0 -0 -0 -0 -0 0 -0 -0 -0 -0 -0 0 0 -0 -0 -0 -0
0 0 -0 -0 -0 -0 -0 -0 -0 -0 -0 -0 -0 0 0 0 -0 -0 -0 -0 -0 0
-0 0 -0 -0 -0 -0 -0 -0 -0 -0 -0 -0 -0 -0 0 0 -0 -0 0 -0 -0 -0
-0 -0 0 -0 -0 -0 -0 -0 -0 -0 -0 -0 -0 -0 -0 -0 -0 0 0 0 0 -0
-0 -0 0 0 -0 -0 -0 -0 -0 -0 -0 0 -0 0 0 -0 -0 -0 -0 -0 0 0
0 0 0 0 0 0 0 0 -0 -0 -0 0 0 0 0 0 -0 -0 0 0 0 -0
0 0 0 0 0 0 0 0 0 0 0 0 -0 -0 -0 -0 0 0 0 0 0 0
Wind_Speed_500mb
14 17 20 21 23 22 33 41 36 39 35 43 37 49 54 59 57 32 37 35 27 23
16 16 18 23 26 23 25 30 30 29 38 51 46 55 61 66 56 38 38 41 29 20
20 19 19 18 21 26 23 29 36 32 32 36 43 47 54 59 61 45 41 39 33 24
20 22 24 20 20 22 26 31 32 35 29 34 38 32 36 45 47 50 43 40 35 27
19 26 30 28 23 19 19 28 33 36 32 30 36 37 39 39 42 48 47 44 43 32
20 20 18 18 20 22 20 22 30 34 35 30 34 31 42 35 41 47 43 43 43 44
31 24 19 18 20 24 26 28 33 31 32 32 33 32 37 37 37 41 38 37 38 38
31 27 23 23 21 24 25 27 26 26 28 32 28 27 35 38 42 41 37 36 34 32
38 31 26 26 28 27 29 25 19 20 23 30 29 29 35 39 43 43 39 34 38 33
43 40 35 31 30 28 27 27 30 24 29 27 26 32 36 38 39 39 38 37 38 41
51 47 44 41 36 33 31 29 32 31 29 28 26 31 37 39 40 39 40 40 41 42
55 53 50 47 44 39 35 34 35 35 33 30 30 34 36 41 44 44 44 44 44 45
57 55 52 48 45 43 40 37 38 38 38 36 34 36 39 42 44 46 47 48 48 46
61 58 53 51 49 46 45 45 43 42 41 40 40 41 41 43 45 45 45 47 48 49
Wind_Direction_500mb
111 112 119 117 139 142 157 166 180 192 192 211 196 199 192 197 191 187 185 189 191 197
135 133 129 142 149 156 172 176 178 184 199 215 199 209 206 205 196 187 188 196 197 204
115 141 155 149 151 165 173 186 187 185 195 198 213 221 213 203 208 190 189 198 205 199
112 122 135 152 170 180 183 183 186 190 199 197 202 190 202 209 207 197 196 200 198 202
135 116 119 124 129 140 176 194 194 197 189 195 201 197 206 212 205 202 197 200 200 207
170 155 142 126 113 132 123 137 174 183 186 188 202 197 195 202 199 203 200 207 209 211
187 179 173 160 137 128 124 120 124 147 177 190 191 202 198 191 195 191 201 207 210 217
189 192 187 172 165 149 146 136 137 139 147 154 158 160 164 169 184 191 190 190 202 207
182 191 198 187 181 181 176 173 176 180 172 169 168 170 179 192 196 199 199 204 199 198
190 190 195 198 194 190 187 191 190 188 183 188 191 191 191 194 199 204 207 203 200 198
198 199 197 197 205 206 205 202 199 200 199 197 200 199 194 194 196 198 200 198 199 198
202 203 203 203 203 209 212 207 204 205 208 211 204 202 205 202 199 198 198 198 197 197
205 206 206 205 208 208 208 211 213 211 212 213 214 209 203 207 203 200 197 196 195 196
209 209 208 210 210 213 215 215 217 221 220 217 211 208 210 208 208 206 204 202 203 201
Wind_Speed_850mb
14 17 20 21 23 22 33 41 36 39 35 43 37 49 54 59 57 32 37 35 27 23
16 16 18 23 26 23 25 30 30 29 38 51 46 55 61 66 56 38 38 41 29 20
20 19 19 18 21 26 23 29 36 32 32 36 43 47 54 59 61 45 41 39 33 24
20 22 24 20 20 22 26 31 32 35 29 34 38 32 36 45 47 50 43 40 35 27
19 26 30 28 23 19 19 28 33 36 32 30 36 37 39 39 42 48 47 44 43 32
20 20 18 18 20 22 20 22 30 34 35 30 34 31 42 35 41 47 43 43 43 44
31 24 19 18 20 24 26 28 33 31 32 32 33 32 37 37 37 41 38 37 38 38
31 27 23 23 21 24 25 27 26 26 28 32 28 27 35 38 42 41 37 36 34 32
38 31 26 26 28 27 29 25 19 20 23 30 29 29 35 39 43 43 39 34 38 33
43 40 35 31 30 28 27 27 30 24 29 27 26 32 36 38 39 39 38 37 38 41
51 47 44 41 36 33 31 29 32 31 29 28 26 31 37 39 40 39 40 40 41 42
55 53 50 47 44 39 35 34 35 35 33 30 30 34 36 41 44 44 44 44 44 45
57 55 52 48 45 43 40 37 38 38 38 36 34 36 39 42 44 46 47 48 48 46
61 58 53 51 49 46 45 45 43 42 41 40 40 41 41 43 45 45 45 47 48 49
Wind_Direction_850mb
111 112 119 117 139 142 157 166 180 192 192 211 196 199 192 197 191 187 185 189 191 197
135 133 129 142 149 156 172 176 178 184 199 215 199 209 206 205 196 187 188 196 197 204
115 141 155 149 151 165 173 186 187 185 195 198 213 221 213 203 208 190 189 198 205 199
112 122 135 152 170 180 183 183 186 190 199 197 202 190 202 209 207 197 196 200 198 202
135 116 119 124 129 140 176 194 194 197 189 195 201 197 206 212 205 202 197 200 200 207
170 155 142 126 113 132 123 137 174 183 186 188 202 197 195 202 199 203 200 207 209 211
187 179 173 160 137 128 124 120 124 147 177 190 191 202 198 191 195 191 201 207 210 217
189 192 187 172 165 149 146 136 137 139 147 154 158 160 164 169 184 191 190 190 202 207
182 191 198 187 181 181 176 173 176 180 172 169 168 170 179 192 196 199 199 204 199 198
190 190 195 198 194 190 187 191 190 188 183 188 191 191 191 194 199 204 207 203 200 198
198 199 197 197 205 206 205 202 199 200 199 197 200 199 194 194 196 198 200 198 199 198
202 203 203 203 203 209 212 207 204 205 208 211 204 202 205 202 199 198 198 198 197 197
205 206 206 205 208 208 208 211 213 211 212 213 214 209 203 207 203 200 197 196 195 196
209 209 208 210 210 213 215 215 217 221 220 217 211 208 210 208 208 206 204 202 203 201